Theta_e
291 290 290 291 291 290 289 288 288 289 290 291 291 291 290 290 290 290 291 292 293 293 293 296 299 299 299 296 295 295 297 298 299 299 298 297 306 307
290 289 289 289 290 289 288 288 288 286 288 288 289 289 289 289 289 290 290 290 290 291 292 292 293 297 298 297 297 296 296 296 297 298 299 297 299 304
289 289 289 289 288 288 288 287 287 286 285 285 287 288 288 288 288 288 289 289 290 290 291 291 292 292 294 296 296 295 294 295 293 294 296 297 295 297
288 288 287 287 286 286 286 286 285 285 285 285 285 287 288 287 287 287 287 287 288 289 289 290 291 292 292 292 294 294 293 293 293 293 293 294 295 294
288 287 287 286 285 284 284 283 283 284 285 286 286 287 287 287 286 286 286 286 285 286 287 287 289 290 291 292 293 293 293 293 293 293 293 292 292 292
287 286 285 284 284 283 282 282 283 283 284 284 285 286 286 286 286 286 286 285 285 285 285 286 287 288 289 290 291 291 292 292 293 292 292 292 292 292
285 284 284 283 282 282 281 281 281 281 282 282 283 283 284 285 286 285 285 285 285 284 284 286 289 289 289 290 290 290 291 291 291 292 292 292 292 291
283 283 282 282 281 281 281 280 280 281 281 281 282 282 283 283 284 284 284 284 284 284 284 285 286 288 289 289 289 290 291 291 291 292 292 291 291 291
282 282 281 280 280 279 279 280 280 281 281 282 282 282 282 282 283 283 283 283 283 283 284 284 285 285 286 287 288 289 289 290 290 290 291 291 291 291
280 279 279 279 279 279 279 280 281 281 282 281 281 282 282 283 283 283 283 283 283 283 284 284 284 284 285 285 285 286 287 287 288 288 288 289 289 289
280 279 279 279 280 280 280 281 281 281 281 281 281 281 281 282 283 284 284 283 283 283 283 283 283 284 284 284 285 285 286 286 286 286 287 287 287 287
279 279 280 280 280 280 280 280 281 281 282 281 281 281 281 281 282 282 283 283 282 282 284 284 284 284 284 285 285 285 285 286 286 286 286 286 286 286
278 279 279 279 279 280 280 280 280 281 281 281 282 282 282 283 283 283 283 283 284 284 284 284 285 285 285 285 286 286 285 285 285 286 287 287 287 286
278 278 278 278 279 279 279 279 279 280 281 281 281 282 282 283 283 284 284 285 285 285 286 285 285 285 285 285 285 286 286 286 287 287 286 287 287 287
277 277 277 278 278 278 278 279 279 279 279 280 280 280 281 282 283 283 284 285 285 286 286 286 286 286 285 285 285 286 286 286 286 286 286 287 287 288
277 277 277 277 277 277 278 278 278 278 278 279 279 280 281 282 283 283 285 286 286 286 285 285 286 286 286 286 286 285 285 286 286 286 286 287 287 287
276 276 277 277 276 276 276 277 277 277 278 278 279 280 281 282 282 283 284 285 286 286 286 286 287 287 286 286 286 286 286 286 285 286 286 287 287 287
275 275 275 276 275 275 275 276 276 276 277 278 279 280 280 281 282 282 283 284 285 285 285 285 285 286 286 286 286 286 286 286 286 285 285 285 286 286
275 274 274 274 274 274 274 274 274 274 275 277 278 279 280 280 281 281 282 283 283 284 284 284 284 284 285 284 285 285 286 286 286 285 285 285 285 285
277 274 274 274 274 274 274 273 273 273 274 276 277 278 279 279 280 280 280 281 281 282 282 283 283 283 283 284 283 284 284 284 284 284 285 285 285 286
277 277 274 274 274 273 273 273 273 273 274 275 276 277 277 278 278 279 279 279 279 280 280 281 282 282 282 282 282 283 284 283 283 283 283 284 284 285
276 277 276 274 274 274 274 273 274 274 273 274 275 275 276 276 277 277 278 278 278 278 279 280 281 282 282 282 282 283 283 282 282 282 283 282 283 284
277 276 276 276 275 274 274 274 274 274 274 273 273 274 274 274 276 276 276 277 277 277 278 280 281 282 282 282 282 283 282 282 281 282 282 282 282 282
Wind_Speed
14 15 18 19 18 18 15 16 18 19 24 24 16 16 16 13 13 14 13 12 11 11 15 18 22 26 26 22 15 16 17 18 19 18 17 18 15 18
16 18 20 20 20 19 21 24 25 23 24 26 29 25 20 20 18 17 18 17 15 12 10 12 16 17 30 31 21 16 13 8 13 17 19 20 20 21
20 18 17 20 24 28 30 32 32 28 28 33 31 29 26 22 23 22 22 21 19 16 14 12 13 14 14 22 22 13 9 13 12 16 16 19 22 24
19 23 25 28 32 32 31 30 30 28 27 29 29 24 20 22 24 24 23 24 26 24 24 21 16 15 17 17 18 15 12 14 14 13 14 15 18 24
25 28 31 33 32 29 27 26 25 25 23 23 27 26 25 23 23 24 23 23 24 24 24 25 27 23 19 19 21 19 18 16 18 17 15 13 14 18
29 31 30 27 26 27 27 25 24 24 24 23 24 24 23 24 26 24 22 21 22 20 22 21 22 22 26 26 24 21 17 16 19 19 18 18 17 17
30 27 26 25 24 24 24 25 25 26 28 29 29 26 23 20 21 22 23 20 22 23 21 22 21 20 18 17 21 23 25 26 24 25 25 25 23 22
28 27 26 25 25 24 26 28 25 24 24 25 27 27 26 23 22 22 22 22 25 23 19 15 23 25 24 21 18 20 20 19 22 25 26 26 25 25
28 28 28 27 27 28 25 21 18 19 21 23 26 26 26 24 21 22 21 21 23 21 19 24 20 23 26 27 27 27 24 23 22 23 23 24 25 26
27 27 25 24 21 20 20 21 22 21 18 18 19 19 19 21 21 21 20 20 20 22 20 26 25 24 21 24 26 28 31 30 30 28 27 28 29 30
24 20 19 18 16 16 19 22 21 20 21 22 23 24 23 19 16 13 16 16 21 25 24 27 30 27 24 27 27 27 26 27 30 31 31 30 30 29
19 18 15 14 16 18 20 21 21 21 16 12 15 15 17 20 24 26 27 28 29 30 19 12 11 11 10 12 17 25 29 24 20 21 25 27 27 29
19 17 15 16 19 18 15 14 15 17 17 15 13 11 8 7 9 13 15 18 19 21 20 19 16 12 11 14 12 6 11 25 25 21 19 22 23 24
18 17 17 20 17 14 14 15 14 14 14 13 12 10 9 8 6 6 9 11 13 15 14 12 14 13 13 14 14 7 4 11 17 19 16 18 18 18
19 19 18 18 16 15 13 10 11 12 11 10 9 10 10 10 9 8 7 10 12 12 11 12 15 14 14 13 13 11 9 9 10 14 20 16 15 16
19 18 17 16 14 12 11 9 11 13 10 10 11 11 9 7 5 5 3 2 6 7 9 9 10 11 13 14 13 12 14 11 8 14 15 18 18 17
18 16 15 14 15 13 10 10 11 13 12 11 11 11 7 4 4 3 2 4 4 3 4 5 9 10 8 9 11 10 10 10 10 16 19 18 20 20
18 16 15 15 16 16 15 13 12 12 11 9 10 10 8 6 6 5 3 3 2 4 2 2 4 2 4 7 9 9 11 11 10 13 15 19 21 21
17 16 14 15 16 15 16 15 16 15 11 8 8 9 8 6 5 6 4 2 0 2 3 5 6 4 3 3 3 5 7 5 6 8 12 15 17 15
16 16 15 14 14 14 15 15 15 15 12 8 8 8 8 8 7 6 6 5 5 5 5 6 6 6 5 4 5 6 7 3 3 3 7 12 15 15
15 14 14 14 14 13 13 13 14 15 14 10 9 9 9 8 7 7 7 8 9 9 9 8 6 6 5 7 7 6 3 4 5 4 4 6 6 7
13 13 12 13 13 13 12 12 13 13 12 11 10 10 10 9 8 8 9 11 11 12 11 7 5 5 6 6 6 2 2 4 6 4 3 5 4 2
12 12 11 12 12 12 12 12 12 13 13 12 11 11 11 10 8 9 9 10 12 10 8 4 4 4 4 5 5 4 3 3 3 3 3 4 5 5
Wind_Direction
304 306 301 295 296 295 304 319 321 314 313 313 307 306 312 315 302 306 312 321 313 308 319 287 255 226 212 204 214 228 230 237 236 240 240 242 228 234
302 303 300 292 289 288 296 301 304 299 290 292 288 301 306 303 300 295 295 297 297 303 307 308 314 275 238 227 215 228 210 230 244 240 238 238 233 235
310 300 294 295 298 297 295 295 296 294 285 283 280 285 289 290 289 280 278 280 278 276 279 281 282 287 283 226 222 196 247 260 251 256 244 238 238 238
305 304 304 302 302 300 297 294 290 287 283 283 283 284 277 283 286 287 284 282 277 271 265 263 261 270 269 285 263 230 230 240 252 254 256 249 237 238
304 303 306 306 305 305 304 300 292 287 284 280 279 275 277 282 284 289 292 288 282 275 268 266 260 254 252 256 263 272 244 231 244 248 252 249 243 235
303 305 308 307 306 307 307 305 295 286 284 281 279 281 279 277 281 286 289 290 283 278 263 260 257 254 252 252 251 255 260 249 244 250 250 249 249 253
307 309 308 306 305 304 300 300 298 293 287 284 283 284 279 275 274 279 284 288 288 291 280 247 242 241 235 230 235 241 245 245 246 248 250 250 251 255
312 312 310 306 305 302 297 295 289 283 283 284 284 282 281 277 272 274 277 280 288 289 286 271 246 246 243 240 233 232 230 230 233 235 235 238 244 253
311 310 309 308 303 299 300 298 293 287 280 281 279 277 277 279 278 269 269 268 271 274 275 274 262 257 250 250 251 248 244 242 239 238 238 241 244 249
314 313 313 313 314 312 310 301 295 292 292 288 288 284 281 275 269 269 268 268 267 266 266 272 275 275 264 253 250 251 250 250 250 250 248 249 251 254
328 332 329 327 334 331 322 315 310 300 293 290 284 282 273 267 256 271 251 260 267 275 277 279 279 278 271 263 252 246 248 249 249 249 249 247 246 249
339 339 338 339 338 327 320 315 311 319 309 302 300 292 282 267 256 254 259 263 270 279 286 269 281 277 291 284 261 248 241 243 242 244 246 246 245 246
340 340 339 336 328 327 321 323 331 313 318 306 306 307 307 286 266 258 255 254 256 260 267 271 280 277 265 287 293 279 242 231 240 245 244 248 245 245
339 338 330 329 332 325 325 331 318 317 316 312 313 316 314 309 293 262 247 252 257 267 273 268 264 269 277 286 291 285 250 225 224 224 238 238 240 239
338 337 331 331 331 328 336 339 338 342 345 344 335 322 312 303 296 291 271 261 263 265 266 252 250 263 267 267 278 290 278 272 250 244 224 225 223 231
341 339 335 336 340 346 348 349 350 354 354 356 347 335 327 323 315 299 284 295 265 255 260 255 252 256 259 263 262 265 270 265 251 232 229 232 233 238
344 340 340 348 354 356 357 346 343 349 355 359 358 359 5 23 29 11 360 7 351 145 208 265 270 260 255 259 266 272 282 273 258 238 234 233 231 235
349 345 350 353 357 359 359 359 353 352 357 1 5 11 17 17 18 9 6 26 76 89 79 19 355 307 262 249 251 275 282 273 265 249 238 244 244 245
351 356 355 355 357 1 2 2 1 358 353 352 2 8 13 14 5 6 0 355 59 294 324 337 340 323 253 241 246 280 308 318 257 239 228 232 249 259
351 355 359 357 357 357 0 3 4 5 2 356 355 358 4 5 358 359 354 344 331 307 297 304 314 322 312 299 284 286 303 309 326 290 266 259 263 264
351 348 353 354 357 359 357 355 356 0 2 358 344 341 342 343 349 348 341 333 324 317 312 285 285 291 303 297 287 302 254 312 321 318 324 321 298 267
348 346 345 347 352 352 353 354 353 354 359 357 350 346 340 333 328 328 332 338 333 326 329 321 292 293 276 300 313 262 248 307 317 303 308 348 344 266
339 338 337 338 341 346 346 348 352 352 352 352 350 348 345 344 332 330 325 326 333 332 326 323 337 312 298 270 290 248 276 306 346 313 294 324 343 337